Location: Boiro
(42.6475°N, 8.8834°W)
Time: 00:21:57
(UTC+01:00)

Tiros 1 - Pass Details

Date: 11 December 2021
Orbit: 629 x 664 km, 48.4° (Epoch: 18 January)

Event Time Altitude Azimuth Distance (km) Brightness Sun altitude
Rises 21:03:05 0° 291° (WNW) 2,927 11.4 -32.4°
Reaches altitude 10° 21:05:29 10° 298° (WNW) 2,022 10.3 -32.8°
Enters shadow 21:07:12 21° 307° (NW) 1,418 9.3 -33.1°
Maximum altitude 21:09:59 47° 12° (NNE) 848 - -33.6°
Drops below altitude 10° 21:14:31 10° 87° (E) 2,039 - -34.5°
Sets 21:16:57 0° 93° (E) 2,954 - -34.9°
